Location: Unspecified
(0.0000°N, 0.0000°E)
Time: 00:22:19
(UTC+00:00)

STARLINK-1265 - Pass Details

Date: 21 May 2026
Orbit: 448 x 454 km, 53.2° (Epoch: 10 June)

Event Time Altitude Azimuth Distance (km) Brightness Sun altitude
Rises 05:23:53 0° 347° (NNW) 2,466 7.0 -7.7°
Reaches altitude 10° 05:26:19 10° 1° (N) 1,598 6.3 -7.1°
Maximum altitude 05:29:15 23° 56° (NE) 1,015 6.1 -6.4°
Drops below altitude 10° 05:32:11 10° 111° (ESE) 1,609 6.8 -5.7°
Sets 05:34:37 0° 125° (SE) 2,487 7.5 -5.2°
